CAPE
448 492 608 660 749 777 812 988 1034 1025 1178 1287 1512 1730 1682 1719 1713 1699 1774 1821 1726 1648 1643 1721 1569 1361 1086 920 837 816 818 942 1032 1502 1667 1590 1441 1272 1340 1597 2009 1909 1729 1673 1874 2283 1470 1380 1483 1355 1334 1172 1046 836 657 588 666 794 841 785 746 944 943 874 688 425 176 326 390 399 439 402 565 806 657 618 649 701 725 700 658 646 582 528 543
538 496 515 626 673 694 839 1123 1199 1318 1499 1451 1676 1939 1868 1847 1757 1676 1721 1750 1687 1554 1468 1569 1446 1333 1075 940 1012 1017 1002 1070 688 1051 1414 1365 1242 1186 1200 1217 1693 1859 1651 1545 1658 1988 1793 1485 1216 1338 1264 1101 977 950 864 866 804 684 703 782 701 888 998 853 683 75 39 72 346 370 350 387 599 876 828 816 662 738 747 734 736 670 684 576 587
598 543 477 515 554 656 931 1089 1367 1638 1764 1866 1879 1967 2021 1961 1804 1659 1680 1615 1509 1418 1388 1370 1368 1267 1094 1076 1052 1203 1159 1085 872 746 854 1012 996 859 895 827 1182 1589 1671 1535 1488 1652 1838 1653 1392 1062 1076 1064 1069 1080 1058 1027 953 752 570 656 665 836 928 794 587 281 58 19 54 219 380 368 497 880 1047 985 895 771 787 767 744 822 794 776 746
698 612 610 670 640 653 889 983 1323 1539 1753 1956 2033 2049 2032 1950 1873 1732 1725 1597 1496 1530 1416 1336 1279 1237 1061 1109 1322 1230 1152 1208 1283 1127 919 840 907 961 880 1041 978 1188 1463 1416 1236 1383 1801 1732 1511 1224 1066 1052 1004 960 969 973 889 751 584 498 621 770 706 635 525 383 59 25 77 200 273 152 77 388 711 812 743 949 923 840 744 839 841 781 807
865 758 720 800 751 700 762 1010 1315 1527 1738 1893 2006 2066 2002 1998 1906 1867 1806 1643 1522 1529 1581 1411 1331 1265 1126 1180 1280 1455 1260 1140 1062 1005 940 953 1244 1161 1059 1162 932 885 1165 1231 1194 1200 1604 1810 1677 1431 1129 1055 1040 965 841 840 824 765 660 508 593 628 504 459 304 452 388 130 20 24 74 244 149 294 804 1015 928 1060 922 889 836 866 868 835 866
927 850 874 961 955 829 870 1115 1419 1559 1764 1899 1974 2035 2028 2015 1886 1784 1771 1711 1624 1530 1562 1498 1433 1356 1189 1251 1328 1292 1280 1228 975 809 806 888 942 1053 1126 1204 1340 928 854 1010 1170 1219 1282 1607 1777 1631 1382 1108 996 999 917 828 794 775 728 529 524 549 494 360 326 282 378 384 75 0 360 119 470 574 31 368 929 894 929 989 978 963 920 904 818
1228 1163 1114 1139 1077 996 1024 1183 1438 1606 1783 1833 1957 1968 2028 1989 1906 1874 1859 1828 1747 1671 1699 1669 1528 1463 1372 1262 1348 1280 1181 1232 1142 922 866 946 1037 1151 1182 1242 1391 1310 887 835 992 1250 1172 1256 1629 1741 1552 1325 1100 916 822 806 784 792 742 493 468 478 512 434 306 158 192 172 227 92 356 445 115 181 443 468 60 851 985 1170 1329 1077 989 880 742
1314 1211 1246 1204 1206 1200 1262 1244 1309 1408 1548 1550 1797 1840 1928 2033 1965 1936 1857 1756 1726 1733 1792 1788 1610 1534 1462 1349 1450 1480 1307 1204 1233 1277 1196 1163 1184 1242 1262 1259 1315 1350 1193 921 974 1135 1199 1094 1255 1656 1663 1512 1372 1163 896 850 870 815 711 504 467 448 510 522 502 395 159 116 255 480 537 380 332 446 506 466 252 128 82 977 1375 1574 1280 955 724
1322 1296 1240 1243 1342 1381 1409 1298 1239 1100 1128 1293 1489 1437 1529 1764 1898 1945 1864 1762 1780 1776 1807 1860 1789 1757 1707 1524 1334 1458 1471 1317 1237 1287 1342 1323 1298 1283 1285 1316 1326 1304 1259 1090 974 989 1077 988 959 1343 1590 1564 1462 1349 1140 935 828 720 663 665 558 527 542 638 626 478 169 51 389 356 508 363 369 582 580 551 334 331 169 474 706 1138 1219 880 595
1206 1051 910 850 1044 1187 1279 1410 1359 1133 1168 1211 1176 1249 1352 1401 1432 1520 1646 1582 1523 1838 1863 1889 1945 1915 1774 1584 1467 1427 1494 1497 1418 1369 1355 1407 1420 1425 1383 1381 1410 1390 1336 1250 1188 1146 1107 1035 934 1247 1506 1546 1516 1423 1286 1108 936 732 608 638 615 595 637 716 831 694 491 159 25 15 290 156 46 106 482 507 476 380 225 155 414 726 764 699 749
965 847 915 916 1047 1215 1330 1339 1354 1206 1083 1086 1109 1164 1174 1141 1099 1274 1375 1262 1101 1234 1300 1308 1677 1690 1572 1572 1578 1541 1495 1464 1469 1430 1398 1466 1483 1447 1402 1424 1465 1477 1419 1304 1290 1351 1327 1228 1120 1214 1578 1644 1638 1583 1416 1219 1065 884 721 621 640 612 648 741 781 846 803 750 642 203 36 6 1 78 231 742 560 563 512 496 541 600 798 937 539
1183 1092 1147 1044 1240 1315 1344 1262 1268 1195 1073 1110 1134 1174 1034 948 953 1062 1034 975 986 908 929 972 1001 1021 1037 1082 1149 1254 1252 1257 1368 1408 1329 1516 1574 1502 1462 1453 1476 1476 1450 1392 1321 1265 1386 1400 1317 1265 1537 1698 1721 1701 1566 1322 1106 932 805 699 652 646 672 710 790 862 863 854 838 712 272 5 1 25 13 207 641 707 606 632 606 957 939 963 722
1219 1258 1251 1169 1359 1359 1273 1342 1384 1329 1245 1147 1147 1136 1084 1022 1021 1029 1013 930 989 901 1072 1054 1036 1098 1173 1266 1295 1342 1402 1448 1479 1544 1480 1438 1585 1604 1582 1554 1495 1468 1480 1490 1469 1395 1287 1364 1275 1392 1588 1703 1755 1737 1643 1440 1182 960 825 753 752 702 718 747 778 768 773 733 751 697 620 324 90 66 154 292 622 674 590 494 424 578 728 831 733
1064 1250 1298 1307 1449 1460 1366 1358 1486 1512 1447 1342 1237 1202 1178 1083 972 892 924 886 906 979 1014 971 1025 1073 1097 1118 1178 1200 1291 1356 1446 1442 1484 1378 1325 1385 1450 1434 1428 1429 1459 1506 1559 1544 1502 1442 1466 1477 1520 1743 1810 1779 1682 1544 1352 1159 972 807 831 835 781 794 776 755 728 714 651 603 543 445 335 45 138 244 640 656 618 589 703 861 871 788 698
894 853 1123 1327 1521 1568 1401 1297 1425 1528 1482 1310 1283 1248 1201 898 917 824 834 898 772 865 866 759 724 656 736 848 851 968 1170 1375 1433 1340 1281 1279 1459 1442 1386 1374 1359 1372 1426 1510 1529 1556 1541 1545 1584 1440 1411 1401 1530 1552 1738 1682 1544 1425 1307 1177 1006 992 983 923 888 860 828 751 656 567 509 446 390 329 326 503 668 663 647 875 865 924 867 898 923
957 912 861 1010 1489 1605 1455 1438 1443 1519 1382 1200 1177 1124 1023 886 848 765 855 913 750 762 747 719 630 706 758 760 861 1069 1281 1205 1235 1370 1530 1428 1273 1212 1243 1305 1449 1472 1436 1393 1390 1390 1430 1457 1440 1333 1203 1162 1206 1226 1287 1374 1532 1544 1471 1382 1278 1211 1246 1224 1192 1126 1038 902 800 730 663 566 425 310 263 277 394 475 646 759 983 992 942 953 942
595 865 926 894 1216 1338 1495 1592 1565 1564 1423 1239 1173 1093 1036 942 880 662 783 826 730 702 726 616 667 786 734 691 716 984 1091 1088 1022 1139 1406 1296 1179 1075 1079 1058 1216 1312 1295 1316 1326 1243 1163 1177 1356 1350 1224 1074 1082 1365 1384 1340 1387 1435 1494 1563 1488 1438 1388 1344 1307 1222 1138 1056 960 882 772 669 485 276 114 278 394 480 532 728 842 864 981 1004 1122
604 624 738 907 1198 1346 1500 1646 1675 1618 1446 1207 1110 1048 998 909 891 773 580 598 706 722 643 662 688 683 663 613 590 559 581 719 791 824 794 1098 1314 1315 1198 1072 1003 1076 1103 1178 1233 1209 1102 1105 1260 1205 1175 1186 1013 988 1222 1234 1100 986 1161 1492 1559 1575 1570 1573 1486 1402 1292 1144 976 829 709 622 568 330 21 184 320 539 738 771 918 1073 1033 990 982
764 732 698 812 882 1348 1554 1590 1580 1456 1333 1174 1080 996 959 840 847 810 681 736 855 772 682 680 680 689 645 585 560 520 489 506 713 681 720 701 771 830 840 941 1050 1101 1078 1017 1147 1129 1108 1165 1122 1137 1113 958 967 1047 1061 1100 1254 1249 1300 1373 1372 1388 1481 1422 1483 1470 1342 1184 1036 829 657 540 507 476 260 216 348 474 635 664 673 779 995 945 983
822 811 729 656 784 1036 1340 1471 1457 1390 1289 1165 1058 961 938 872 837 831 721 778 846 770 710 647 612 593 544 499 492 466 442 672 728 828 782 816 832 816 673 664 761 691 833 1031 1131 1105 1068 1055 1074 1038 972 1052 1047 988 1020 994 1127 1211 1229 1183 1143 1245 1244 1207 1298 1358 1355 1195 1053 881 691 553 498 496 514 336 293 412 594 726 780 939 1071 1069 1021
809 840 793 809 849 980 1137 1295 1374 1368 1317 1217 1068 1017 958 948 931 821 741 751 719 596 598 534 539 552 504 445 431 436 459 435 493 621 595 604 799 855 779 722 694 818 718 717 733 769 864 874 986 1034 1040 993 928 955 836 877 898 918 887 845 983 932 923 966 1066 1225 1227 1168 1120 940 690 542 468 434 453 404 340 434 531 644 692 826 978 1004 958
752 810 826 875 951 995 1134 1236 1342 1377 1353 1245 1088 1118 1006 969 917 766 691 648 559 480 390 528 561 514 472 410 474 482 462 447 422 421 358 507 650 694 563 632 649 798 819 773 675 607 762 610 728 947 995 994 995 958 881 777 765 770 720 694 670 690 701 723 780 831 896 953 975 923 736 530 390 348 339 296 332 422 508 625 719 771 927 998 941
653 652 715 872 977 1066 1166 1285 1363 1389 1352 1266 1152 1120 1041 978 904 753 655 570 505 451 385 388 302 412 348 341 461 414 337 284 334 336 295 436 426 338 322 341 379 362 550 244 225 351 444 488 590 692 797 769 739 695 703 724 739 704 684 641 581 545 534 535 535 548 590 673 728 770 752 604 396 300 298 302 268 349 456 586 736 833 919 969 994
574 594 690 741 854 1054 1229 1309 1350 1364 1348 1290 1192 1144 1142 1054 891 735 689 597 472 351 257 20 99 329 29 399 386 306 58 196 127 55 101 306 296 280 307 288 291 272 232 6 0 0 216 263 340 427 496 522 548 580 590 604 608 596 604 590 554 602 609 561 500 480 456 505 588 639 660 615 536 429 316 286 257 316 444 589 752 934 1073 999 1022
557 604 800 911 961 992 1114 1278 1339 1342 1313 1252 1137 1128 1096 1081 954 746 750 647 393 230 79 13 48 14 236 363 163 0 0 4 0 6 38 46 42 102 258 223 212 208 187 168 0 0 0 0 0 102 303 413 456 488 527 559 571 555 504 461 422 430 488 600 582 493 515 468 511 577 639 638 615 544 412 307 270 271 429 654 812 932 956 971 994
859 824 810 848 900 1003 1110 1148 1196 1252 1267 1215 1032 844 1043 1040 916 764 795 614 297 192 30 66 20 1 0 104 0 0 0 0 0 0 0 0 0 5 7 7 0 0 0 0 0 0 0 0 0 0 0 0 134 264 395 436 463 478 485 469 445 425 443 394 520 668 653 640 687 658 654 674 707 671 527 402 301 292 423 623 806 869 899 920 976
852 946 999 996 1042 1049 1040 1036 1055 1097 1139 1090 902 882 898 926 809 813 781 535 232 0 4 62 0 0 0 0 0 0 0 0 0 0 0 0 0 0 0 0 0 0 0 0 0 0 0 0 0 0 0 0 0 0 0 48 107 298 343 346 356 344 420 485 458 433 390 509 679 750 759 748 747 752 716 584 378 260 330 562 778 923 962 1020 1002
713 853 928 966 984 978 952 898 855 912 980 1006 972 893 788 770 725 625 492 349 32 0 0 66 0 0 0 0 0 0 0 0 0 0 0 0 0 0 0 0 0 0 0 0 0 0 0 0 0 0 0 0 0 0 0 0 0 0 0 0 0 0 0 239 252 332 432 408 383 395 498 662 793 788 741 699 576 362 225 341 543 661 742 840 944
658 773 775 759 748 742 719 708 700 693 695 679 666 632 558 607 649 567 147 57 6 0 0 19 0 0 0 0 0 0 0 0 0 0 0 0 0 0 0 0 0 0 0 0 0 0 0 0 0 0 0 0 0 0 0 0 0 0 0 0 0 0 0 1 1 30 172 422 458 459 467 459 440 641 688 653 591 512 310 184 287 411 456 538 659
471 597 665 712 765 800 802 758 737 737 743 746 751 741 686 559 564 447 324 239 1 12 7 0 0 0 0 0 0 0 0 0 0 0 0 0 0 0 0 0 0 0 0 0 0 0 0 0 0 0 0 0 0 0 0 0 0 0 0 0 0 0 1 1 1 2 9 82 273 391 404 412 445 459 502 598 626 540 423 368 186 261 323 346 437
4 336 586 772 875 894 844 794 755 752 770 814 851 853 781 628 549 541 483 358 313 236 256 0 0 0 0 0 0 0 0 0 0 0 0 0 0 0 0 0 12 38 20 0 0 0 0 0 0 0 0 0 0 0 0 0 0 0 0 0 0 0 0 2 1 1 2 2 59 84 116 178 320 334 378 460 546 643 456 370 263 212 300 365 484
0 0 304 626 741 760 745 724 714 718 743 777 813 821 721 610 582 560 485 395 355 319 332 199 0 0 0 0 0 1 0 0 0 0 0 0 0 0 0 0 6 20 18 8 0 0 0 0 0 0 0 0 0 0 0 0 0 0 0 0 0 1 1 1 2 1 1 3 6 44 88 107 118 179 266 337 369 434 509 494 498 374 355 406 437
0 0 0 2 369 533 625 681 704 725 762 816 852 837 783 727 676 484 342 347 355 331 272 210 7 0 0 1 3 1 1 0 0 0 0 0 0 0 0 1 18 22 13 0 0 0 0 0 0 0 0 0 0 0 0 0 0 0 0 0 0 2 2 2 2 2 1 1 7 18 65 98 113 120 181 465 465 452 465 497 462 481 392 254 290
0 0 0 0 44 189 460 587 662 713 766 816 865 887 862 768 660 415 0 120 326 314 282 250 196 50 0 0 6 4 1 1 0 0 0 0 0 0 0 7 16 8 0 0 0 0 0 0 0 0 0 0 0 0 0 0 0 0 0 1 1 1 2 2 3 5 5 2 3 14 41 64 97 105 111 143 173 193 240 314 322 318 347 338 203
0 0 0 0 2 79 385 532 611 675 733 798 810 822 839 818 624 180 0 330 314 320 283 209 89 94 0 0 0 0 1 1 0 0 0 0 0 0 0 0 0 0 1 14 2 0 0 0 0 0 0 0 0 0 0 0 0 0 0 1 2 0 0 1 3 8 14 17 15 14 30 49 57 81 106 131 133 134 132 94 204 319 331 351 276
0 0 0 0 0 2 220 463 580 627 670 690 710 725 756 700 477 74 0 0 0 0 18 189 0 0 0 0 0 2 3 1 1 0 0 0 0 0 0 0 0 0 0 0 0 0 0 0 0 0 0 0 0 0 0 0 0 0 0 0 0 0 0 0 1 4 3 1 4 34 68 55 44 45 55 65 79 106 138 136 139 194 267 281 276
0 0 0 0 0 0 0 127 463 577 625 640 658 650 651 601 352 0 0 0 0 0 0 77 0 0 0 1 1 0 2 4 1 0 0 0 0 0 0 0 0 0 0 0 0 0 0 0 0 0 0 0 0 0 0 0 0 0 0 0 0 0 0 0 0 0 0 1 2 10 28 67 82 65 52 26 54 120 116 88 77 88 148 209 265
0 0 0 0 0 0 0 0 0 314 525 629 647 608 536 514 234 0 0 0 0 0 0 0 0 0 0 0 2 4 5 2 0 0 0 0 0 0 0 0 0 0 0 0 0 0 0 0 0 0 0 0 0 0 0 0 0 0 0 0 0 0 0 0 0 0 0 0 1 0 0 6 32 82 96 99 121 120 98 64 9 45 78 154 237
0 0 0 0 0 0 0 0 0 0 151 491 561 469 236 0 0 0 0 0 0 0 2 0 0 0 0 3 5 5 3 0 0 0 0 0 0 0 0 0 0 0 0 0 0 0 0 0 0 0 0 0 0 0 0 0 0 0 0 0 0 0 0 0 0 0 0 0 0 0 4 14 10 0 36 118 110 91 93 90 10 20 39 119 225
0 0 0 0 0 0 0 0 0 0 0 281 404 340 0 0 0 0 0 0 4 0 0 7 9 15 18 18 7 2 0 0 0 0 0 0 0 0 0 0 0 0 0 0 0 0 0 0 0 0 0 0 0 0 0 0 0 0 0 0 0 0 0 0 0 0 0 0 0 0 2 0 0 66 107 96 58 2 36 12 37 24 72 113 257
0 0 0 0 0 0 0 0 0 0 0 78 324 330 276 120 92 159 166 47 1 3 6 5 32 25 25 10 2 0 0 0 0 0 2 3 1 0 0 0 0 0 0 0 0 0 0 0 0 0 0 0 0 0 0 0 0 0 0 0 0 0 0 0 0 0 0 0 0 0 0 0 0 28 37 0 0 0 0 0 0 68 141 190 334
0 0 0 0 0 0 0 0 0 0 0 152 302 309 282 221 83 167 199 195 155 7 6 38 20 27 11 2 2 0 0 0 0 3 7 6 3 2 2 0 0 0 0 0 0 0 0 0 0 0 0 0 0 0 0 0 0 0 0 0 0 0 0 0 0 0 0 0 0 0 0 0 4 15 87 16 0 0 4 0 0 17 34 7 3
0 0 0 0 0 0 0 0 0 0 0 0 0 211 187 167 152 206 164 68 0 0 7 14 12 16 7 2 1 0 0 0 2 5 6 6 5 4 3 1 0 0 0 0 0 0 0 0 0 0 0 1 0 0 0 0 0 0 0 0 0 0 0 2 0 0 0 0 0 0 0 8 36 68 76 78 117 119 49 39 2 5 1 17 2
0 0 0 0 0 0 0 0 0 0 0 0 0 0 0 0 0 0 0 57 3 12 7 5 7 9 6 1 0 0 0 0 1 2 2 2 3 4 2 1 0 0 0 0 0 0 0 0 0 0 1 2 0 0 0 0 0 0 0 0 0 0 0 0 0 0 0 0 2 1 7 23 42 89 35 60 108 54 14 6 3 3 5 0 0
0 0 0 0 0 0 0 0 0 0 0 0 0 0 0 0 0 0 0 0 0 2 0 6 8 6 5 4 2 2 1 0 0 1 4 5 4 2 1 0 0 0 0 0 0 0 0 0 0 0 0 1 0 0 0 0 0 0 0 0 0 0 0 0 0 0 0 0 0 0 1 2 15 19 77 60 36 41 39 0 1 2 0 0 2
0 0 0 0 0 0 0 0 0 0 0 0 0 0 0 0 0 0 0 0 0 0 0 0 0 0 0 0 2 2 0 0 1 4 5 5 2 1 0 0 0 0 0 0 0 0 0 0 0 0 0 0 0 0 0 0 0 0 0 0 0 0 0 0 0 0 0 0 0 0 8 11 30 64 63 40 32 27 5 2 6 6 1 2 0
0 0 0 0 0 0 0 0 0 0 0 0 0 0 0 0 0 0 0 0 0 0 0 0 0 0 0 0 0 0 0 0 3 6 5 2 0 0 0 0 0 0 0 0 0 0 0 0 0 0 0 0 4 0 0 0 0 0 0 0 0 0 0 0 0 0 0 0 0 0 9 26 19 15 24 12 0 0 8 15 18 15 11 7 4
0 0 0 0 0 0 0 0 0 0 0 0 0 0 0 0 0 0 0 0 0 0 0 0 0 1 0 0 0 0 0 3 5 6 3 1 0 0 0 0 0 0 0 0 0 0 0 0 0 0 0 0 12 1 0 0 0 0 0 0 0 0 0 0 0 0 0 0 0 5 18 26 30 26 9 1 5 3 2 17 1 0 0 0 0
0 0 0 0 0 0 0 0 0 0 0 0 0 0 0 0 1 0 0 0 0 1 4 2 2 3 2 1 1 0 0 2 3 2 2 0 0 0 0 0 0 0 0 0 0 0 0 0 0 5 28 19 1 0 0 0 0 0 0 0 0 0 0 0 0 16 0 0 0 0 15 28 22 31 15 2 7 3 0 0 0 0 0 0 0
0 0 0 0 0 0 0 0 0 0 0 0 0 0 0 0 0 0 1 1 1 2 5 6 7 8 7 6 7 2 0 0 2 3 1 0 0 0 0 0 0 0 0 0 0 0 0 0 0 0 0 0 0 0 0 0 0 0 0 0 0 0 0 0 0 0 0 0 0 0 0 11 28 24 27 19 14 7 0 0 0 0 0 0 0
0 0 0 0 0 0 0 0 0 0 0 0 0 0 0 0 0 0 0 1 2 4 5 7 8 9 8 10 10 4 5 4 4 2 0 0 0 0 0 0 0 0 0 0 0 0 0 0 0 0 0 0 0 0 0 0 0 0 0 0 0 0 0 0 0 0 0 0 1 0 2 3 1 21 5 21 20 16 6 0 0 0 0 0 0
Wind_Speed
16 14 10 8 6 9 10 8 10 12 13 13 11 9 10 11 12 11 11 10 10 9 10 10 11 12 12 10 8 8 8 8 7 6 5 3 2 2 2 2 4 5 5 7 8 9 10 13 15 15 16 16 15 14 13 12 11 13 16 17 16 17 17 18 16 18 19 18 20 20 22 21 19 19 17 16 17 18 19 19 18 18 15 14 13
17 14 12 10 8 9 9 9 10 13 13 14 13 12 13 14 14 14 14 13 11 10 10 10 10 10 11 10 11 10 9 8 5 5 5 5 5 5 5 5 5 6 6 6 7 8 9 10 12 13 15 15 14 16 16 14 13 14 17 18 18 19 18 17 16 nan nan nan 19 19 21 21 20 19 18 18 17 18 19 20 20 18 17 16 15
15 13 13 11 11 11 12 13 15 16 18 18 17 17 16 16 16 17 16 16 14 13 13 11 11 12 13 13 12 11 11 10 8 7 7 6 6 6 7 8 7 7 7 7 8 7 8 9 9 11 12 14 16 16 16 16 15 14 14 16 18 21 22 20 18 20 nan nan nan 21 20 21 22 24 22 19 18 18 20 20 20 20 18 18 18
18 16 15 14 14 13 13 15 17 20 22 22 22 21 20 19 19 20 19 17 16 15 14 13 13 13 14 15 13 13 11 10 10 10 9 9 7 7 8 9 9 8 8 9 9 8 8 8 9 10 11 12 14 17 17 17 17 15 14 14 17 19 20 20 20 21 nan nan nan 16 16 20 nan 22 21 21 20 19 20 19 21 20 20 21 21
20 18 17 16 17 16 18 17 17 18 22 24 24 23 22 22 21 22 21 19 18 16 16 16 16 16 16 16 16 15 14 13 12 10 10 9 9 9 7 10 10 9 10 10 10 10 9 8 8 9 12 11 13 15 17 16 17 16 15 14 14 16 15 19 19 20 19 18 nan nan nan 18 17 19 23 21 23 23 20 19 20 20 20 21 21
20 20 20 18 17 18 19 20 20 20 23 25 26 25 25 24 23 23 23 22 19 18 18 18 17 17 17 16 15 14 12 13 10 8 9 9 8 11 11 11 11 12 11 11 10 11 10 9 9 10 11 12 12 13 14 16 17 16 13 13 12 14 17 19 17 18 18 18 nan nan 16 16 16 18 nan 22 23 22 23 22 20 20 21 21 19
19 19 19 19 18 19 18 19 19 20 22 25 26 25 24 24 23 23 23 23 21 20 20 20 20 19 17 16 16 15 14 13 14 14 12 11 12 12 11 13 12 12 13 12 12 12 11 11 10 10 11 13 13 13 11 11 13 14 15 13 12 14 18 18 17 16 19 18 16 nan 18 18 19 20 17 21 nan 22 22 22 21 21 22 21 21
23 20 19 18 18 18 19 18 18 19 22 23 24 23 22 22 24 24 24 24 23 23 22 22 21 20 19 18 17 16 16 14 15 13 14 14 13 12 13 13 13 14 14 15 14 13 13 12 11 10 11 12 14 13 11 10 12 15 16 15 16 16 16 17 18 19 19 17 17 16 17 17 16 16 17 18 20 20 nan 21 20 19 20 18 18
27 26 24 22 19 19 19 19 20 22 23 23 23 23 23 24 25 26 26 26 24 24 23 22 22 22 20 19 18 17 17 16 16 16 15 15 15 14 15 14 14 14 15 15 16 15 15 14 13 12 11 11 13 13 12 11 11 14 17 18 18 18 17 17 20 19 21 nan 22 18 19 17 18 16 17 21 20 20 17 17 17 19 19 16 16
24 25 25 21 20 18 19 20 21 20 23 25 25 26 26 28 28 28 27 28 27 26 25 23 22 24 23 22 20 18 19 19 19 17 17 18 16 15 16 16 16 16 16 17 17 17 16 16 16 14 13 13 13 14 14 13 13 14 16 18 20 20 21 19 17 19 21 21 nan nan 21 21 nan 22 22 21 22 20 18 18 15 16 17 17 18
22 24 23 20 18 18 18 19 19 21 22 25 26 26 28 30 31 30 28 28 28 27 26 24 24 25 24 23 22 20 21 21 21 20 20 20 19 18 18 18 19 18 18 18 18 19 19 18 17 16 15 15 15 16 16 15 14 15 16 17 19 21 24 23 20 20 20 20 21 22 nan nan nan nan 22 22 23 22 23 19 17 15 14 16 17
21 23 22 20 19 18 19 20 20 21 22 24 25 26 28 30 32 31 30 28 28 27 27 25 24 24 24 25 25 24 24 24 23 22 22 21 20 19 20 21 21 21 21 20 19 19 21 20 19 19 18 18 17 18 18 17 17 17 18 18 18 20 24 26 25 22 20 18 19 21 22 nan nan nan nan 24 24 21 22 20 18 18 18 14 15
21 21 21 20 20 20 20 21 22 21 21 23 25 26 27 28 29 29 27 26 27 27 26 26 25 25 25 26 26 26 25 23 23 23 24 22 21 21 22 22 22 23 22 22 21 20 21 22 22 21 20 20 19 20 19 20 19 19 18 18 18 18 20 24 26 24 22 19 16 19 20 21 nan nan 23 24 23 24 24 24 20 20 15 16 18
21 20 19 19 19 20 21 23 22 21 21 23 24 25 25 26 26 26 24 25 26 26 25 24 24 25 26 27 27 28 26 26 25 25 24 24 22 21 22 22 22 22 22 23 23 23 24 23 24 24 23 22 21 21 21 21 21 20 19 18 18 17 19 20 22 24 23 20 20 19 19 20 21 nan 22 22 23 28 27 24 22 22 20 16 17
19 19 18 18 19 20 21 23 22 21 22 22 22 23 25 24 24 23 23 23 24 24 23 23 23 25 26 27 28 30 30 30 28 26 26 25 25 24 23 23 23 23 23 24 25 25 25 26 27 27 26 25 26 25 24 23 22 21 21 19 19 19 18 18 20 23 22 22 22 21 20 20 21 23 25 23 23 24 28 26 26 23 21 20 19
19 18 17 17 18 19 21 22 22 22 22 22 22 24 25 23 23 23 22 22 22 23 23 24 23 26 27 29 30 31 31 32 30 29 27 26 26 26 26 26 24 23 23 24 26 29 28 27 28 26 27 27 27 27 26 24 23 22 22 21 19 21 19 18 18 20 20 22 22 23 24 21 22 23 24 24 24 25 27 29 28 27 23 19 21
18 18 18 19 18 19 21 22 22 22 21 22 22 23 24 25 24 21 20 21 22 24 25 26 28 29 29 31 32 32 32 31 30 28 26 26 25 25 25 25 25 25 24 26 26 28 28 27 27 28 31 30 27 29 31 27 25 24 21 22 21 22 21 18 19 18 19 22 23 22 23 23 24 26 25 24 25 27 27 28 27 26 26 24 20
19 20 20 22 21 21 21 22 23 23 22 22 21 22 24 24 22 20 19 19 20 24 26 29 31 32 32 33 34 33 32 31 30 29 27 27 25 24 24 25 25 25 26 26 27 26 27 27 28 28 30 31 27 27 31 29 28 26 22 21 23 24 22 21 20 19 19 21 21 22 23 23 26 28 nan 26 26 27 28 29 28 27 27 24 22
18 20 21 22 23 22 21 21 21 22 23 23 23 24 24 24 22 21 20 19 21 24 27 30 33 35 35 35 36 34 33 31 30 29 29 27 24 23 23 24 26 26 27 26 26 26 27 28 28 28 30 30 29 27 29 30 31 29 27 25 25 24 21 20 21 22 21 21 19 19 21 22 25 27 29 29 28 28 27 29 29 30 27 27 28
18 19 21 22 23 24 23 23 22 23 24 24 25 25 24 24 25 25 24 23 23 24 26 28 31 35 35 35 35 35 34 32 31 31 29 26 24 24 24 25 25 27 27 27 26 26 26 27 27 28 29 29 29 29 31 30 30 30 30 29 27 25 22 21 22 24 24 22 20 19 19 20 23 27 29 31 30 30 30 31 32 32 33 30 29
21 21 20 21 22 23 22 22 24 25 26 27 27 26 25 28 27 26 25 24 24 23 25 27 30 32 34 34 34 35 34 32 32 32 32 28 26 26 26 26 28 27 28 29 28 28 28 28 28 28 28 29 30 29 31 29 29 28 28 28 28 26 22 22 24 23 24 23 21 20 20 20 24 26 27 30 32 31 32 32 33 35 33 28 30
27 25 24 23 22 23 24 24 25 26 27 28 27 29 30 28 27 28 29 27 27 26 28 29 30 31 33 34 34 35 35 34 34 34 34 31 29 28 28 30 29 28 30 29 30 30 30 30 30 29 29 30 31 31 31 29 26 27 27 29 29 28 26 24 24 23 24 24 23 21 20 21 24 24 24 27 30 30 31 32 34 35 32 28 30
28 27 26 25 25 26 28 29 28 27 27 27 28 29 29 28 29 30 30 27 27 27 29 30 31 32 33 35 36 37 37 36 36 36 36 34 32 30 32 33 31 31 32 32 33 35 36 35 35 35 34 34 34 34 33 31 30 29 28 29 29 28 26 24 23 22 23 24 22 21 20 22 24 22 21 23 27 27 29 31 33 35 32 32 33
27 27 27 27 27 27 27 27 27 28 28 27 27 27 27 28 30 29 27 25 25 29 29 nan nan 31 nan 33 33 35 nan 36 37 nan 35 33 31 31 32 33 31 32 33 nan nan nan 38 39 39 38 38 38 38 38 39 37 34 31 30 30 30 30 28 26 24 23 23 23 21 20 20 21 21 19 18 21 25 26 27 29 34 39 37 33 32
26 27 27 28 29 30 29 29 28 26 26 29 30 27 27 26 28 26 23 24 26 29 nan nan nan nan 29 29 29 nan nan nan nan nan nan nan nan 30 30 30 31 33 32 33 nan nan nan nan nan 37 37 37 38 39 40 39 40 40 38 36 34 32 30 28 26 25 24 23 21 19 19 22 20 16 16 21 25 26 29 32 35 36 35 33 34
27 27 28 28 29 29 29 29 27 24 24 28 28 27 25 26 26 24 23 25 30 28 nan nan nan nan nan 28 nan nan nan nan nan nan nan nan nan nan nan nan nan nan nan nan nan nan nan nan nan nan nan nan 36 38 39 40 40 39 38 37 36 35 33 31 28 28 27 25 22 21 21 23 21 17 16 21 26 29 32 33 34 36 35 34 35
26 28 27 25 24 26 28 28 25 21 21 23 24 24 24 24 23 21 22 28 28 nan nan nan nan nan nan nan nan nan nan nan nan nan nan nan nan nan nan nan nan nan nan nan nan nan nan nan nan nan nan nan nan nan nan nan 39 38 37 37 36 35 35 34 31 29 29 28 26 25 24 25 23 21 20 22 27 31 32 32 33 34 35 35 36
22 24 25 26 25 25 25 24 21 16 15 15 17 19 20 19 19 19 22 28 nan nan nan nan nan nan nan nan nan nan nan nan nan nan nan nan nan nan nan nan nan nan nan nan nan nan nan nan nan nan nan nan nan nan nan nan nan nan nan nan nan nan nan 34 33 31 30 29 27 26 26 26 25 26 24 24 27 30 31 31 32 36 35 34 34
22 21 23 24 24 23 23 22 20 16 14 12 12 14 16 16 16 20 27 nan nan nan nan nan nan nan nan nan nan nan nan nan nan nan nan nan nan nan nan nan nan nan nan nan nan nan nan nan nan nan nan nan nan nan nan nan nan nan nan nan nan nan nan nan nan nan 31 29 28 27 27 27 24 21 23 24 25 28 31 30 32 35 34 33 33
21 22 23 24 24 22 20 20 19 18 15 13 13 13 15 16 16 20 20 21 nan nan nan nan nan nan nan nan nan nan nan nan nan nan nan nan nan nan nan nan nan nan nan nan nan nan nan nan nan nan nan nan nan nan nan nan nan nan nan nan nan nan nan nan nan nan nan nan 29 29 28 22 21 20 20 22 23 24 24 28 32 33 34 34 34
nan 22 23 22 22 21 19 18 18 17 15 14 13 13 14 15 15 17 18 20 24 25 27 nan nan nan nan nan nan nan nan nan nan nan nan nan nan nan nan nan nan nan nan nan nan nan nan nan nan nan nan nan nan nan nan nan nan nan nan nan nan nan nan nan nan nan nan nan nan nan 29 26 24 22 22 21 24 24 22 23 28 29 32 35 36
nan nan 23 21 20 20 19 18 18 16 15 14 14 15 17 16 17 17 17 21 23 23 24 24 nan nan nan nan nan nan nan nan nan nan nan nan nan nan nan nan nan nan nan nan nan nan nan nan nan nan nan nan nan nan nan nan nan nan nan nan nan nan nan nan nan nan nan nan nan nan nan 31 29 27 28 28 26 24 22 23 25 27 30 32 36
nan nan nan nan 19 20 20 19 19 19 18 17 17 17 17 18 20 18 19 21 20 20 20 21 nan nan nan nan nan nan nan nan nan nan nan nan nan nan nan nan nan nan nan nan nan nan nan nan nan nan nan nan nan nan nan nan nan nan nan nan nan nan nan nan nan nan nan nan nan nan nan nan 31 23 27 31 31 29 26 22 23 24 27 29 31
nan nan nan nan nan 17 18 20 21 21 22 22 22 20 18 20 20 21 nan 20 20 18 20 22 24 nan nan nan nan nan nan nan nan nan nan nan nan nan nan nan nan nan nan nan nan nan nan nan nan nan nan nan nan nan nan nan nan nan nan nan nan nan nan nan nan nan nan nan nan nan nan nan nan 33 33 32 34 34 33 31 29 31 30 28 30
nan nan nan nan nan nan 16 17 17 19 21 23 23 23 25 24 23 23 nan 23 22 22 23 25 nan nan nan nan nan nan nan nan nan nan nan nan nan nan nan nan nan nan nan nan nan nan nan nan nan nan nan nan nan nan nan nan nan nan nan nan nan nan nan nan nan nan nan nan nan nan nan nan nan nan 34 34 35 36 36 nan 35 36 34 33 36
nan nan nan nan nan nan 19 18 17 18 19 21 22 25 28 25 26 nan nan nan nan nan nan 28 nan nan nan nan nan nan nan nan nan nan nan nan nan nan nan nan nan nan nan nan nan nan nan nan nan nan nan nan nan nan nan nan nan nan nan nan nan nan nan nan nan nan nan nan nan nan nan nan nan nan nan nan nan 36 35 36 39 40 41 41 42
nan nan nan nan nan nan nan 16 15 15 16 17 19 22 24 25 24 nan nan nan nan nan nan nan nan nan nan nan nan nan nan nan nan nan nan nan nan nan nan nan nan nan nan nan nan nan nan nan nan nan nan nan nan nan nan nan nan nan nan nan nan nan nan nan nan nan nan nan nan nan nan nan nan nan nan nan nan 35 36 nan nan nan 43 44 43
nan nan nan nan nan nan nan nan nan 13 13 14 16 19 20 20 20 nan nan nan nan nan nan nan nan nan nan nan nan nan nan nan nan nan nan nan nan nan nan nan nan nan nan nan nan nan nan nan nan nan nan nan nan nan nan nan nan nan nan nan nan nan nan nan nan nan nan nan nan nan nan nan nan nan nan nan 37 36 nan nan nan nan nan 43 41
nan nan nan nan nan nan nan nan nan nan 11 13 16 18 19 nan nan nan nan nan nan nan nan nan nan nan nan nan nan nan nan nan nan nan nan nan nan nan nan nan nan nan nan nan nan nan nan nan nan nan nan nan nan nan nan nan nan nan nan nan nan nan nan nan nan nan nan nan nan nan nan nan nan nan nan 41 43 nan nan nan nan nan nan 40 38
nan nan nan nan nan nan nan nan nan nan nan 16 17 19 nan nan nan nan nan nan nan nan nan nan nan nan nan nan nan nan nan nan nan nan nan nan nan nan nan nan nan nan nan nan nan nan nan nan nan nan nan nan nan nan nan nan nan nan nan nan nan nan nan nan nan nan nan nan nan nan nan nan nan nan 40 nan nan nan nan nan nan nan nan 39 38
nan nan nan nan nan nan nan nan nan nan nan nan 21 22 21 21 nan 21 20 nan nan nan nan nan nan nan nan nan nan nan nan nan nan nan nan nan nan nan nan nan nan nan nan nan nan nan nan nan nan nan nan nan nan nan nan nan nan nan nan nan nan nan nan nan nan nan nan nan nan nan nan nan nan nan nan nan nan nan nan nan nan nan 33 36 39
nan nan nan nan nan nan nan nan nan nan nan 24 24 24 23 24 nan 22 20 20 21 nan nan nan nan nan nan nan nan nan nan nan nan nan nan nan nan nan nan nan nan nan nan nan nan nan nan nan nan nan nan nan nan nan nan nan nan nan nan nan nan nan nan nan nan nan nan nan nan nan nan nan nan nan nan nan nan nan nan nan nan nan nan nan nan
nan nan nan nan nan nan nan nan nan nan nan nan nan 25 24 25 26 24 24 nan nan nan nan nan nan nan nan nan nan nan nan nan nan nan nan nan nan nan nan nan nan nan nan nan nan nan nan nan nan nan nan nan nan nan nan nan nan nan nan nan nan nan nan nan nan nan nan nan nan nan nan nan nan nan nan nan 46 46 nan nan nan nan nan nan nan
nan nan nan nan nan nan nan nan nan nan nan nan nan nan nan nan nan nan nan nan nan nan nan nan nan nan nan nan nan nan nan nan nan nan nan nan nan nan nan nan nan nan nan nan nan nan nan nan nan nan nan nan nan nan nan nan nan nan nan nan nan nan nan nan nan nan nan nan nan nan nan nan nan nan nan nan 43 nan nan nan nan nan nan nan nan
nan nan nan nan nan nan nan nan nan nan nan nan nan nan nan nan nan nan nan nan nan nan nan nan nan nan nan nan nan nan nan nan nan nan nan nan nan nan nan nan nan nan nan nan nan nan nan nan nan nan nan nan nan nan nan nan nan nan nan nan nan nan nan nan nan nan nan nan nan nan nan nan nan nan nan nan nan nan nan nan nan nan nan nan nan
nan nan nan nan nan nan nan nan nan nan nan nan nan nan nan nan nan nan nan nan nan nan nan nan nan nan nan nan nan nan nan nan nan nan nan nan nan nan nan nan nan nan nan nan nan nan nan nan nan nan nan nan nan nan nan nan nan nan nan nan nan nan nan nan nan nan nan nan nan nan nan nan nan nan nan nan nan nan nan nan nan nan nan nan nan
nan nan nan nan nan nan nan nan nan nan nan nan nan nan nan nan nan nan nan nan nan nan nan nan nan nan nan nan nan nan nan nan nan nan nan nan nan nan nan nan nan nan nan nan nan nan nan nan nan nan nan nan nan nan nan nan nan nan nan nan nan nan nan nan nan nan nan nan nan nan nan nan nan nan nan nan nan nan nan nan nan nan nan nan nan
nan nan nan nan nan nan nan nan nan nan nan nan nan nan nan nan nan nan nan nan nan nan nan nan nan nan nan nan nan nan nan nan nan nan nan nan nan nan nan nan nan nan nan nan nan nan nan nan nan nan nan nan nan nan nan nan nan nan nan nan nan nan nan nan nan nan nan nan nan nan nan nan nan nan nan nan nan nan nan nan nan nan nan nan nan
nan nan nan nan nan nan nan nan nan nan nan nan nan nan nan nan nan nan nan nan nan nan nan nan nan nan nan nan nan nan nan nan nan nan nan nan nan nan nan nan nan nan nan nan nan nan nan nan nan nan nan nan nan nan nan nan nan nan nan nan nan nan nan nan nan nan nan nan nan nan nan nan nan nan nan nan nan nan nan nan nan nan nan nan nan
nan nan nan nan nan nan nan nan nan nan nan nan nan nan nan nan nan nan nan nan nan nan nan nan nan nan nan nan nan nan nan nan nan nan nan nan nan nan nan nan nan nan nan nan nan nan nan nan nan nan nan nan nan nan nan nan nan nan nan nan nan nan nan nan nan nan nan nan nan nan nan nan nan nan nan nan nan nan nan nan nan nan nan nan nan
nan nan nan nan nan nan nan nan nan nan nan nan nan nan nan nan nan nan nan nan nan nan nan nan nan nan nan nan nan nan nan nan nan nan nan nan nan nan nan nan nan nan nan nan nan nan nan nan nan nan nan nan nan nan nan nan nan nan nan nan nan nan nan nan nan nan nan nan nan nan nan nan nan nan nan nan nan nan nan nan nan nan nan nan nan
Wind_Direction
279 284 282 277 279 274 275 285 279 274 283 286 273 266 274 282 279 275 267 264 257 252 241 245 241 240 234 242 244 238 238 233 221 219 228 235 238 240 253 254 254 261 260 266 268 259 251 247 257 263 266 271 275 283 283 278 273 270 266 256 254 247 246 244 246 252 252 246 233 229 214 213 216 214 212 217 223 223 226 231 233 239 236 236 237
279 285 298 296 286 282 284 289 281 280 280 287 288 286 278 275 280 277 270 269 267 261 253 245 237 244 247 251 241 240 244 247 244 234 237 235 242 247 249 260 252 253 261 265 265 270 268 262 259 268 269 271 273 270 271 271 269 266 265 251 240 247 248 253 256 nan nan nan 246 234 224 214 219 221 216 214 220 225 230 233 232 235 239 242 243
286 296 297 300 289 292 288 285 284 287 289 286 283 282 279 277 278 276 274 271 266 261 256 251 238 232 238 240 248 235 234 240 249 243 240 238 234 245 253 254 262 264 266 271 274 272 278 280 279 275 272 271 268 267 267 270 272 273 272 268 247 237 241 245 259 259 nan nan nan 241 235 231 223 224 219 218 222 225 229 232 233 234 236 240 246
297 298 304 306 299 295 288 286 288 290 290 287 285 283 276 273 272 275 276 270 266 260 256 246 242 239 236 236 240 243 238 234 238 228 230 233 228 240 240 253 263 274 275 274 275 277 281 289 283 281 282 275 279 277 270 266 266 268 269 265 259 247 240 241 248 253 nan nan nan 245 241 240 nan 225 223 215 228 230 234 233 234 235 237 238 242
305 307 305 307 306 305 298 287 284 285 286 287 287 285 275 273 268 269 271 269 263 258 256 250 244 241 238 236 237 237 232 231 235 225 232 237 238 241 246 254 261 274 276 279 280 285 283 283 286 288 285 283 278 280 277 269 262 265 271 269 268 261 249 240 238 245 246 250 nan nan nan 235 237 232 231 219 229 233 231 235 234 236 238 243 250
315 320 318 313 306 291 283 284 284 279 280 282 284 284 277 271 265 262 262 262 261 257 255 255 251 251 246 246 246 246 242 240 248 250 248 250 257 251 251 254 259 260 267 277 278 276 285 289 287 288 291 291 286 286 283 263 249 254 266 270 268 252 252 247 242 239 241 236 nan nan 247 243 246 234 nan 231 225 228 231 234 237 241 241 243 249
309 310 304 301 297 291 288 286 285 283 281 278 277 278 275 270 264 261 260 258 256 254 254 254 252 250 250 247 245 249 250 236 233 230 238 239 243 246 251 253 258 263 266 269 276 279 281 286 290 291 293 294 291 285 280 270 256 257 261 262 264 260 249 249 251 254 239 231 234 nan 235 238 243 242 238 238 nan 227 228 234 233 236 238 243 247
302 302 304 302 298 299 297 286 277 283 283 279 273 269 272 271 266 263 259 258 256 253 254 255 254 250 247 244 243 244 247 244 241 236 237 238 241 244 249 252 257 262 265 269 274 280 284 288 291 290 290 291 289 289 285 272 260 255 263 264 255 258 260 256 251 250 258 239 242 242 241 239 242 241 242 245 244 236 nan 226 228 230 233 237 247
309 306 310 314 313 308 298 291 278 277 282 281 272 266 267 270 271 267 265 262 260 258 256 256 257 257 254 249 243 240 242 243 243 240 238 239 240 240 246 249 253 256 263 267 272 277 281 286 288 288 285 284 285 284 278 270 269 270 268 264 258 254 257 253 252 252 248 nan 249 246 247 245 244 243 243 246 248 245 230 232 227 229 232 230 236
302 302 304 306 303 297 290 287 285 282 275 274 269 267 268 268 271 270 268 264 263 262 261 260 260 258 257 252 250 244 242 240 242 240 240 242 243 242 245 248 252 254 257 262 268 275 277 278 280 286 286 282 278 279 277 272 267 266 269 270 264 257 253 254 254 249 252 248 nan nan 252 243 nan 240 243 248 242 246 246 238 237 235 231 233 234
296 294 296 300 295 290 285 287 285 279 275 272 268 268 269 270 269 270 271 269 267 267 264 263 261 260 260 258 255 250 247 246 244 243 242 241 242 240 243 245 249 253 254 255 260 264 270 273 275 278 279 278 275 272 274 275 273 271 270 268 266 263 256 253 249 246 251 251 247 249 nan nan nan nan 248 248 248 245 244 238 231 238 244 230 237
303 295 293 295 293 293 289 293 287 281 274 272 266 262 265 268 268 270 269 271 270 271 271 269 266 264 261 261 258 254 250 248 248 250 252 251 248 245 242 242 242 247 250 252 253 258 264 268 269 272 274 274 275 273 272 271 269 268 269 272 269 265 256 251 248 246 246 246 242 244 245 nan nan nan nan 251 252 248 253 248 242 235 236 246 238
303 298 293 294 301 303 298 290 281 274 275 271 267 264 264 265 268 270 269 268 273 274 276 273 271 271 270 266 262 257 253 252 250 250 252 255 252 247 244 244 242 242 247 250 252 256 259 264 268 268 267 269 271 272 271 271 268 268 269 270 271 270 265 257 251 248 249 249 245 244 244 243 nan nan 246 246 244 249 252 248 242 244 243 238 245
309 307 303 300 300 301 297 286 280 272 270 271 266 265 264 263 263 267 268 269 271 273 275 275 277 277 276 274 271 267 262 259 257 254 253 256 254 253 253 250 248 248 247 250 251 253 255 258 262 265 265 265 267 268 267 267 269 270 269 269 269 268 263 259 254 249 247 245 244 241 239 240 237 nan 243 244 244 247 247 251 249 244 245 245 246
310 310 311 306 301 297 292 288 282 275 272 271 266 263 260 259 261 265 268 269 271 272 269 273 275 277 277 277 275 272 268 264 260 259 255 255 259 260 257 255 253 248 248 246 246 247 251 253 255 254 256 260 259 254 255 259 262 264 265 267 265 263 264 260 254 253 251 248 247 246 240 238 239 239 243 244 244 245 250 252 255 251 243 244 246
308 307 302 297 296 291 285 285 287 280 276 273 269 263 262 263 263 266 269 269 270 270 270 273 273 273 275 276 277 275 271 268 262 257 256 258 257 259 261 262 260 256 251 250 249 249 246 246 250 254 257 258 262 264 260 255 252 256 258 261 263 261 262 263 258 257 255 253 251 247 244 239 238 238 242 244 244 241 245 249 252 253 255 242 242
309 311 306 299 289 289 289 288 284 282 278 277 273 267 267 265 262 261 261 264 272 273 274 272 271 269 271 272 273 273 272 269 265 261 257 254 254 256 260 262 262 262 258 254 252 251 251 250 251 249 249 250 252 259 264 260 258 255 253 255 258 258 259 259 259 259 257 256 254 252 251 245 240 238 237 242 242 241 242 246 250 254 256 255 248
320 316 309 308 305 302 294 290 291 291 287 281 276 268 266 265 263 260 257 265 271 273 274 274 272 271 271 271 271 271 270 267 264 261 257 255 252 250 251 252 258 261 261 258 258 255 252 253 253 251 252 253 252 254 262 267 266 264 259 256 255 252 251 252 255 257 257 258 257 253 250 247 243 241 nan 241 244 244 243 243 246 248 253 257 258
303 303 300 300 301 301 299 296 290 285 282 278 273 268 262 261 261 259 259 263 272 273 273 271 269 266 267 269 269 267 265 264 263 261 258 257 255 254 253 253 251 253 256 256 258 258 258 256 255 252 252 251 252 250 253 258 260 262 262 260 260 259 258 256 253 255 255 258 260 258 253 250 248 244 241 241 244 245 242 241 242 245 248 250 257
302 300 299 300 301 303 302 296 289 280 273 268 267 262 262 260 257 252 253 258 264 268 267 267 265 263 262 263 264 265 266 267 267 264 261 259 258 259 258 253 254 253 254 256 257 257 258 260 258 256 255 254 252 251 250 251 254 254 254 256 257 259 258 257 255 256 256 257 258 258 254 253 254 252 245 243 244 244 242 241 241 243 244 251 257
309 310 306 304 304 302 298 292 289 281 274 270 267 268 264 259 257 255 259 259 259 261 262 263 262 262 262 261 262 264 267 268 269 268 266 263 261 262 262 262 258 257 259 259 259 258 259 259 258 257 257 255 254 252 253 250 252 255 256 257 258 259 257 255 255 256 257 257 257 256 254 254 257 259 252 244 241 242 242 242 242 244 245 245 253
318 317 314 312 306 302 294 282 277 279 277 276 270 265 262 262 262 258 254 256 260 262 267 265 262 263 262 261 262 263 265 267 270 271 269 266 264 263 263 261 262 260 262 263 261 259 257 257 258 257 255 253 253 253 254 256 254 253 253 254 254 254 252 249 250 252 255 255 255 256 255 255 258 263 257 244 239 241 243 243 244 246 244 242 248
316 316 316 313 309 306 302 299 293 289 282 278 273 272 272 268 262 256 257 258 262 270 271 270 265 262 262 262 261 261 263 266 269 269 268 267 266 264 263 264 261 260 259 259 256 256 256 254 251 248 247 247 246 246 248 251 251 251 250 251 252 254 254 252 251 252 254 255 256 256 256 256 257 262 259 244 239 242 244 245 244 244 244 241 242
312 314 312 311 307 301 297 297 294 284 277 275 271 268 266 266 263 259 260 262 262 259 255 nan nan 262 nan 264 263 262 nan 265 265 nan 266 266 263 262 262 263 261 258 256 nan nan nan 256 255 253 249 245 242 240 241 241 243 245 247 248 247 248 251 253 252 250 249 251 253 255 254 255 257 258 264 260 247 242 245 247 247 245 242 244 246 248
310 313 313 309 308 311 313 311 305 295 280 267 259 254 259 261 262 265 264 262 257 258 nan nan nan nan 263 265 265 nan nan nan nan nan nan nan nan 262 262 262 260 258 259 259 nan nan nan nan nan 252 248 244 240 238 240 240 239 239 240 241 243 245 249 251 251 249 248 248 248 250 251 254 257 265 260 250 247 249 251 250 246 243 244 245 246
315 311 307 315 321 319 315 313 308 296 281 268 261 255 251 253 258 261 265 262 258 253 nan nan nan nan nan 263 nan nan nan nan nan nan nan nan nan nan nan nan nan nan nan nan nan nan nan nan nan nan nan nan 243 241 241 239 238 238 239 240 241 242 245 245 246 248 249 249 247 246 247 251 255 262 262 255 251 252 253 252 247 241 241 244 247
315 316 316 309 310 321 322 319 313 300 281 269 266 262 254 253 256 260 261 259 261 nan nan nan nan nan nan nan nan nan nan nan nan nan nan nan nan nan nan nan nan nan nan nan nan nan nan nan nan nan nan nan nan nan nan nan 239 238 238 240 241 241 242 245 246 245 244 244 244 243 245 247 249 253 256 258 254 250 252 252 249 245 244 246 247
296 297 304 315 323 324 324 323 318 309 293 277 267 266 263 255 257 260 259 260 nan nan nan nan nan nan nan nan nan nan nan nan nan nan nan nan nan nan nan nan nan nan nan nan nan nan nan nan nan nan nan nan nan nan nan nan nan nan nan nan nan nan nan 241 243 244 244 244 243 242 243 246 247 247 250 254 256 253 250 251 247 246 247 249 252
300 307 311 314 317 324 329 326 325 317 310 302 285 275 268 259 258 256 255 nan nan nan nan nan nan nan nan nan nan nan nan nan nan nan nan nan nan nan nan nan nan nan nan nan nan nan nan nan nan nan nan nan nan nan nan nan nan nan nan nan nan nan nan nan nan nan 244 245 245 244 244 245 246 245 250 250 254 256 255 254 250 249 248 250 252
310 313 318 318 320 323 329 329 325 329 324 311 296 286 278 272 265 262 267 270 nan nan nan nan nan nan nan nan nan nan nan nan nan nan nan nan nan nan nan nan nan nan nan nan nan nan nan nan nan nan nan nan nan nan nan nan nan nan nan nan nan nan nan nan nan nan nan nan 243 245 245 245 244 243 246 253 257 259 259 259 258 254 253 252 254
nan 313 317 318 319 322 324 326 332 333 331 320 308 296 285 282 278 277 280 280 279 280 281 nan nan nan nan nan nan nan nan nan nan nan nan nan nan nan nan nan nan nan nan nan nan nan nan nan nan nan nan nan nan nan nan nan nan nan nan nan nan nan nan nan nan nan nan nan nan nan 243 243 243 243 245 252 258 262 260 260 265 266 262 262 259
nan nan 316 314 315 318 321 327 328 324 317 308 302 297 294 295 291 288 284 278 280 281 283 282 nan nan nan nan nan nan nan nan nan nan nan nan nan nan nan nan nan nan nan nan nan nan nan nan nan nan nan nan nan nan nan nan nan nan nan nan nan nan nan nan nan nan nan nan nan nan nan 244 244 243 244 245 249 256 259 261 266 268 267 270 272
nan nan nan nan 317 318 320 321 317 312 308 308 302 293 293 291 288 288 280 282 287 285 282 281 nan nan nan nan nan nan nan nan nan nan nan nan nan nan nan nan nan nan nan nan nan nan nan nan nan nan nan nan nan nan nan nan nan nan nan nan nan nan nan nan nan nan nan nan nan nan nan nan 245 242 240 244 245 247 250 254 261 268 269 272 273
nan nan nan nan nan 308 313 319 317 314 311 304 295 296 288 279 282 278 nan 284 286 285 282 278 273 nan nan nan nan nan nan nan nan nan nan nan nan nan nan nan nan nan nan nan nan nan nan nan nan nan nan nan nan nan nan nan nan nan nan nan nan nan nan nan nan nan nan nan nan nan nan nan nan 246 245 246 246 246 247 246 247 251 253 256 256
nan nan nan nan nan nan 318 315 312 310 301 292 288 285 274 270 270 274 nan 282 284 284 278 273 nan nan nan nan nan nan nan nan nan nan nan nan nan nan nan nan nan nan nan nan nan nan nan nan nan nan nan nan nan nan nan nan nan nan nan nan nan nan nan nan nan nan nan nan nan nan nan nan nan nan 248 252 251 250 249 nan 252 256 257 258 258
nan nan nan nan nan nan 327 327 320 308 302 299 296 284 279 278 273 nan nan nan nan nan nan 272 nan nan nan nan nan nan nan nan nan nan nan nan nan nan nan nan nan nan nan nan nan nan nan nan nan nan nan nan nan nan nan nan nan nan nan nan nan nan nan nan nan nan nan nan nan nan nan nan nan nan nan nan nan 255 254 253 253 253 252 251 247
nan nan nan nan nan nan nan 314 304 307 307 307 303 292 287 282 281 nan nan nan nan nan nan nan nan nan nan nan nan nan nan nan nan nan nan nan nan nan nan nan nan nan nan nan nan nan nan nan nan nan nan nan nan nan nan nan nan nan nan nan nan nan nan nan nan nan nan nan nan nan nan nan nan nan nan nan nan 261 254 nan nan nan 252 252 250
nan nan nan nan nan nan nan nan nan 319 324 319 310 302 298 296 296 nan nan nan nan nan nan nan nan nan nan nan nan nan nan nan nan nan nan nan nan nan nan nan nan nan nan nan nan nan nan nan nan nan nan nan nan nan nan nan nan nan nan nan nan nan nan nan nan nan nan nan nan nan nan nan nan nan nan nan 260 258 nan nan nan nan nan 256 254
nan nan nan nan nan nan nan nan nan nan 329 318 314 308 307 nan nan nan nan nan nan nan nan nan nan nan nan nan nan nan nan nan nan nan nan nan nan nan nan nan nan nan nan nan nan nan nan nan nan nan nan nan nan nan nan nan nan nan nan nan nan nan nan nan nan nan nan nan nan nan nan nan nan nan nan 254 254 nan nan nan nan nan nan 262 261
nan nan nan nan nan nan nan nan nan nan nan 315 308 306 nan nan nan nan nan nan nan nan nan nan nan nan nan nan nan nan nan nan nan nan nan nan nan nan nan nan nan nan nan nan nan nan nan nan nan nan nan nan nan nan nan nan nan nan nan nan nan nan nan nan nan nan nan nan nan nan nan nan nan nan 250 nan nan nan nan nan nan nan nan 268 258
nan nan nan nan nan nan nan nan nan nan nan nan 298 300 304 306 nan 305 312 nan nan nan nan nan nan nan nan nan nan nan nan nan nan nan nan nan nan nan nan nan nan nan nan nan nan nan nan nan nan nan nan nan nan nan nan nan nan nan nan nan nan nan nan nan nan nan nan nan nan nan nan nan nan nan nan nan nan nan nan nan nan nan 244 251 248
nan nan nan nan nan nan nan nan nan nan nan 293 296 299 300 299 nan 310 311 305 297 nan nan nan nan nan nan nan nan nan nan nan nan nan nan nan nan nan nan nan nan nan nan nan nan nan nan nan nan nan nan nan nan nan nan nan nan nan nan nan nan nan nan nan nan nan nan nan nan nan nan nan nan nan nan nan nan nan nan nan nan nan nan nan nan
nan nan nan nan nan nan nan nan nan nan nan nan nan 303 302 301 308 316 309 nan nan nan nan nan nan nan nan nan nan nan nan nan nan nan nan nan nan nan nan nan nan nan nan nan nan nan nan nan nan nan nan nan nan nan nan nan nan nan nan nan nan nan nan nan nan nan nan nan nan nan nan nan nan nan nan nan 248 245 nan nan nan nan nan nan nan
nan nan nan nan nan nan nan nan nan nan nan nan nan nan nan nan nan nan nan nan nan nan nan nan nan nan nan nan nan nan nan nan nan nan nan nan nan nan nan nan nan nan nan nan nan nan nan nan nan nan nan nan nan nan nan nan nan nan nan nan nan nan nan nan nan nan nan nan nan nan nan nan nan nan nan nan 241 nan nan nan nan nan nan nan nan
nan nan nan nan nan nan nan nan nan nan nan nan nan nan nan nan nan nan nan nan nan nan nan nan nan nan nan nan nan nan nan nan nan nan nan nan nan nan nan nan nan nan nan nan nan nan nan nan nan nan nan nan nan nan nan nan nan nan nan nan nan nan nan nan nan nan nan nan nan nan nan nan nan nan nan nan nan nan nan nan nan nan nan nan nan
nan nan nan nan nan nan nan nan nan nan nan nan nan nan nan nan nan nan nan nan nan nan nan nan nan nan nan nan nan nan nan nan nan nan nan nan nan nan nan nan nan nan nan nan nan nan nan nan nan nan nan nan nan nan nan nan nan nan nan nan nan nan nan nan nan nan nan nan nan nan nan nan nan nan nan nan nan nan nan nan nan nan nan nan nan
nan nan nan nan nan nan nan nan nan nan nan nan nan nan nan nan nan nan nan nan nan nan nan nan nan nan nan nan nan nan nan nan nan nan nan nan nan nan nan nan nan nan nan nan nan nan nan nan nan nan nan nan nan nan nan nan nan nan nan nan nan nan nan nan nan nan nan nan nan nan nan nan nan nan nan nan nan nan nan nan nan nan nan nan nan
nan nan nan nan nan nan nan nan nan nan nan nan nan nan nan nan nan nan nan nan nan nan nan nan nan nan nan nan nan nan nan nan nan nan nan nan nan nan nan nan nan nan nan nan nan nan nan nan nan nan nan nan nan nan nan nan nan nan nan nan nan nan nan nan nan nan nan nan nan nan nan nan nan nan nan nan nan nan nan nan nan nan nan nan nan
nan nan nan nan nan nan nan nan nan nan nan nan nan nan nan nan nan nan nan nan nan nan nan nan nan nan nan nan nan nan nan nan nan nan nan nan nan nan nan nan nan nan nan nan nan nan nan nan nan nan nan nan nan nan nan nan nan nan nan nan nan nan nan nan nan nan nan nan nan nan nan nan nan nan nan nan nan nan nan nan nan nan nan nan nan
nan nan nan nan nan nan nan nan nan nan nan nan nan nan nan nan nan nan nan nan nan nan nan nan nan nan nan nan nan nan nan nan nan nan nan nan nan nan nan nan nan nan nan nan nan nan nan nan nan nan nan nan nan nan nan nan nan nan nan nan nan nan nan nan nan nan nan nan nan nan nan nan nan nan nan nan nan nan nan nan nan nan nan nan nan
nan nan nan nan nan nan nan nan nan nan nan nan nan nan nan nan nan nan nan nan nan nan nan nan nan nan nan nan nan nan nan nan nan nan nan nan nan nan nan nan nan nan nan nan nan nan nan nan nan nan nan nan nan nan nan nan nan nan nan nan nan nan nan nan nan nan nan nan nan nan nan nan nan nan nan nan nan nan nan nan nan nan nan nan nan